Location: Coopersdale
(40.3556°N, 78.9372°W)
Time: 07:24:59
(UTC+00:00)

Tiros 1 despin weight - Pass Details

Date: 26 June 2021
Orbit: 593 x 642 km, 48.2° (Epoch: 04 August)

Event Time Altitude Azimuth Distance (km) Brightness Sun altitude
Exits shadow 07:08:02 21° 132° (SE) 1,341 ? -21.4°
Drops below altitude 10° 07:11:15 10° 85° (E) 1,932 ? -21.1°
Sets 07:13:56 0° 70° (ENE) 2,832 ? -20.9°
